Regional Weather Roundup
Issued by NWS

Home | Current Version | Previous Version | Text Only | Print | Product List | Glossary On
Versions: 1 2 3 4 5 6 7 8 9 10 11 12 13 14 15 16 17 18 19 20 21 22 23 24 25 26 27 28 29 30 31 32 33 34 35 36 37 38 39 40 41 42 43 44 45 46 47 48 49 50
534
ASCA44 KEWX 050020
RWRMX

LATIN AMERICA AND CARIBBEAN REGIONAL WEATHER ROUNDUP
NATIONAL WEATHER SERVICE AUSTIN/SAN ANTONIO TX
600 PM CST SUN DEC 04 2016

NOTE: "FAIR" INDICATED FEW OR NO CLOUDS BELOW 12,000 FEET WITH NO
SIGNIFICANT WEATHER AND/OR OBSTRUCTIONS TO VISIBILITY.

BAJA CALIFORNIA

CITY           SKY/WX    TMP DP  RH WIND       PRES   REMARKS
LORETO         CLEAR     72  54  53 N14       29.90R
LA PAZ         PTCLDY    72  48  43 N10       29.95R
MEXICALI       CLEAR     73  12   9 W5        29.97F
S.J. DEL CABO  MOCLDY    68  45  42 SE15      29.93R
TIJUANA        CLEAR     66  30  26 NW12      30.02R

NORTHWESTERN MEXICO

CITY           SKY/WX    TMP DP  RH WIND       PRES   REMARKS
CULIACAN       CLEAR     72  37  28 CALM      29.91R
DURANGO        MOCLDY    48  36  61 SW17      29.97R WCI  42
GUAYMAS        CLEAR     75  46  35 CALM      29.85R
HERMOSILLO     CLEAR     75  41  29 W5        29.92R
CD. JUAREZ     CLEAR     54  32  43 N7        29.97S
LOS MOCHIS     CLEAR     70  43  37 NW14      29.93R
OBREGON        CLEAR     72  41  33 SW5       29.88R

NORTHEASTERN MEXICO

CITY           SKY/WX    TMP DP  RH WIND       PRES   REMARKS
CHIHUAHUA      CLOUDY    41  41 100 N15       30.04R FOG     WCI  33
MATAMOROS      DRIZZLE   57  55  94 NW12      29.84R FOG
MONCLOVA       DRIZZLE   50  50 100 CALM      30.03R FOG
MONTERREY      CLOUDY    52  50  93 SW8       29.92R FOG
NUEVO LAREDO   LGT RAIN  54  52  94 N9        29.96R FOG
PIEDRAS NEGRAS DRIZZLE   52  48  87 NW9       29.99R FOG
REYNOSA        DRZL/FOG  54  52  94 NW6       29.89R VSB 5/8
SALTILLO       DRZL/FOG  46  46 100 CALM      29.96R VSB 1/2
TORREON        MOCLDY    59  48  67 N6        29.91R
CD. VICTORIA   CLOUDY    61  54  77 NW9       29.86R

WESTERN MEXICO

CITY           SKY/WX    TMP DP  RH WIND       PRES   REMARKS
AGUASCALIENTES MOCLDY    64  41  42 S12G23    30.03R
COLIMA         MOCLDY    72  66  83 SW12      29.97R
DEL BAJIO        N/A    N/A N/A N/A MISG        N/A
GUADALAJARA    MOCLDY    68  43  40 S12G23    29.99S
MANZANILLO     MOCLDY    82  75  78 W6        29.80S
MAZATLAN       CLEAR     72  45  37 NW8       29.91R
P. VALLARTA    CLOUDY    72  66  83 CALM      29.87S
URUAPAN        DRIZZLE   63  61  94 E7        30.08R FOG
ZACATECAS      PTCLDY    57  37  47 W26       29.99R

CENTRAL MEXICO

CITY           SKY/WX    TMP DP  RH WIND       PRES   REMARKS
CUERNAVACA       N/A    N/A N/A N/A MISG        N/A
MEXICO CITY    MOCLDY    66  41  39 SW8       30.18R
MORELIA        LGT RAIN  61  54  77 SW5       30.12R
POZA RICA      MOCLDY    79  77  94 NE6       29.78R FOG
PUEBLA         MOCLDY    63  46  55 S15G26    30.17R
QUERETARO      MOCLDY    66  45  45 SW16      30.13S
S. LUIS POTOSI MOCLDY    66  43  42 S9        29.98R
TAMPICO        CLOUDY    72  68  88 N23G35    29.78R HAZE
TOLUCA         MOCLDY    57  39  51 SW3       30.26S

SOUTHERN MEXICO

CITY           SKY/WX    TMP DP  RH WIND       PRES   REMARKS
ACAPULCO       MOCLDY    82  73  74 W5        29.81S
B. DE HUATULCO MOCLDY    81  75  83 SW17      29.87R
OAXACA         PTCLDY    75  50  41 SE10      30.03R
P. ESCONDIDO   PTCLDY    82  75  78 SW12      29.90S
VERACRUZ       MOCLDY    79  73  83 NE3       29.72R
ZIHUATANEJO    MOCLDY    82  73  74 SW6       29.82S

YUCATAN PENINSULA

CITY           SKY/WX    TMP DP  RH WIND       PRES   REMARKS
CAMPECHE       PTCLDY    90  75  62 CALM      29.73S HX 100
CANCUN         PTCLDY    81  77  89 E10       29.87S
CHETUMAL       CLEAR     81  75  83 E13       29.82R
CD. DEL CARMEN CLEAR     86  72  62 E5        29.75R HX  92
COZUMEL        PTCLDY    79  75  89 SE6       29.85S
MERIDA         PTCLDY    84  72  65 SE9       29.79S
MINATITLAN     CLEAR     88  68  51 S12       29.66R HX  91
TAPACHULA      PTCLDY    82  73  74 CALM      29.81
TUX. GUTIERREZ CLEAR     81  61  50 SE5       29.84R
VILLAHERMOSA   CLEAR     82  75  78 E5        29.75R

CENTRAL AMERICA

CITY           SKY/WX    TMP DP  RH WIND       PRES   REMARKS
BELIZE CITY    PTCLDY    81  77  89 E5        29.83S
MANAGUA        PTCLDY    82  73  74 N5        29.80S

CARIBBEAN

CITY           SKY/WX    TMP DP  RH WIND       PRES   REMARKS
ARUBA          PTCLDY    84  75  74 E15       29.86R HX  92
CURACAO        PTCLDY    82  75  78 E14       29.89R
KINGSTON       PTCLDY    82  77  83 E6        29.92R HX  91
NASSAU         PTCLDY    75  70  83 E12       30.06R
SAN JUAN       PTCLDY    82  73  74 E6        29.97R
SANTO DOMINGO  MOCLDY    79  75  89 CALM      29.94S
ST. CROIX      CLEAR     75  72  88 N5        29.97R
ST. KITTS      PTCLDY    79  72  78 N10       29.94S
ST. THOMAS     CLEAR     79  73  83 NE3       29.96R

$$





USA.gov is the U.S. government's official web portal to all federal, state and local government web resources and services.